,,PressureMeas_1m,,PRMeasQMR101_1,,RHStat155_1m_1,,SRMeasQMS101R_1m,,TAStat155_1m_1,,GenWind_1,,GenWind_1,
2018-06-30, 00:00:06,VALID,917.293,VALID,0.0,VALID,98.965,VALID,-0.002,VALID,18.667,VALID,42.0,VALID,1.011,
2018-06-30, 00:01:06,VALID,917.281,VALID,0.0,VALID,98.952,VALID,0.0,VALID,18.663,VALID,41.0,VALID,1.135,
2018-06-30, 00:02:06,VALID,917.265,VALID,0.0,VALID,98.961,VALID,-0.009,VALID,18.671,VALID,42.0,VALID,1.073,
2018-06-30, 00:03:06,VALID,917.26,VALID,0.0,VALID,98.939,VALID,0.006,VALID,18.672,VALID,42.0,VALID,1.187,
2018-06-30, 00:04:06,VALID,917.244,VALID,0.0,VALID,98.965,VALID,-0.007,VALID,18.693,VALID,42.0,VALID,1.229,
2018-06-30, 00:05:06,VALID,917.232,VALID,0.0,VALID,98.938,VALID,0.004,VALID,18.701,VALID,42.0,VALID,0.761,
2018-06-30, 00:06:06,VALID,917.218,VALID,0.0,VALID,98.914,VALID,0.001,VALID,18.709,VALID,41.0,VALID,0.894,
2018-06-30, 00:07:06,VALID,917.201,VALID,0.0,VALID,98.894,VALID,0.02,VALID,18.711,VALID,41.0,VALID,1.126,
2018-06-30, 00:08:06,VALID,917.183,VALID,0.0,VALID,98.902,VALID,0.028,VALID,18.718,VALID,42.0,VALID,1.107,
2018-06-30, 00:09:06,VALID,917.145,VALID,0.0,VALID,98.916,VALID,0.004,VALID,18.727,VALID,41.0,VALID,1.337,
2018-06-30, 00:10:06,VALID,917.123,VALID,0.0,VALID,98.919,VALID,0.018,VALID,18.754,VALID,42.0,VALID,1.328,
2018-06-30, 00:11:06,VALID,917.112,VALID,0.0,VALID,98.919,VALID,0.002,VALID,18.771,VALID,42.0,VALID,1.178,
2018-06-30, 00:12:06,VALID,917.105,VALID,0.0,VALID,98.916,VALID,0.002,VALID,18.755,VALID,41.0,VALID,1.394,
2018-06-30, 00:13:06,VALID,917.084,VALID,0.0,VALID,98.924,VALID,0.017,VALID,18.755,VALID,42.0,VALID,1.334,
2018-06-30, 00:14:06,VALID,917.08,VALID,0.0,VALID,98.918,VALID,0.014,VALID,18.743,VALID,41.0,VALID,1.257,
2018-06-30, 00:15:06,VALID,917.069,VALID,0.0,VALID,98.903,VALID,0.002,VALID,18.718,VALID,42.0,VALID,1.249,
2018-06-30, 00:16:06,VALID,917.078,VALID,0.0,VALID,98.904,VALID,0.011,VALID,18.697,VALID,42.0,VALID,1.17,
2018-06-30, 00:17:06,VALID,917.076,VALID,0.0,VALID,98.907,VALID,0.01,VALID,18.685,VALID,42.0,VALID,0.962,
2018-06-30, 00:18:06,VALID,917.067,VALID,0.0,VALID,98.915,VALID,0.002,VALID,18.666,VALID,42.0,VALID,1.171,
2018-06-30, 00:19:06,VALID,917.057,VALID,0.0,VALID,98.902,VALID,0.007,VALID,18.651,VALID,41.0,VALID,0.791,
2018-06-30, 00:20:06,VALID,917.036,VALID,0.0,VALID,98.902,VALID,0.02,VALID,18.645,VALID,42.0,VALID,0.846,
2018-06-30, 00:21:06,VALID,917.045,VALID,0.0,VALID,98.903,VALID,0.037,VALID,18.646,VALID,41.0,VALID,0.645,
2018-06-30, 00:22:06,VALID,917.041,VALID,0.0,VALID,98.906,VALID,0.016,VALID,18.651,VALID,41.0,VALID,0.356,
2018-06-30, 00:23:06,VALID,917.049,VALID,0.0,VALID,98.907,VALID,0.024,VALID,18.654,INVALID,360.0,VALID,0.114,
2018-06-30, 00:24:06,VALID,917.063,VALID,0.0,VALID,98.907,VALID,0.026,VALID,18.661,INVALID,360.0,VALID,0.042,
2018-06-30, 00:25:06,VALID,917.067,VALID,0.0,VALID,98.924,VALID,0.037,VALID,18.672,INVALID,360.0,VALID,0.0,
2018-06-30, 00:26:06,VALID,917.054,VALID,0.0,VALID,98.92,VALID,0.024,VALID,18.654,INVALID,360.0,VALID,0.026,
2018-06-30, 00:27:06,VALID,917.062,VALID,0.0,VALID,98.878,VALID,0.021,VALID,18.631,VALID,42.0,VALID,0.136,
2018-06-30, 00:28:06,VALID,917.066,VALID,0.0,VALID,98.877,VALID,0.019,VALID,18.62,VALID,43.0,VALID,0.106,
2018-06-30, 00:29:06,VALID,917.062,VALID,0.0,VALID,98.868,VALID,0.014,VALID,18.61,VALID,43.0,VALID,0.36,
2018-06-30, 00:30:06,VALID,917.051,VALID,0.0,VALID,98.845,VALID,0.025,VALID,18.601,VALID,43.0,VALID,0.433,
2018-06-30, 00:31:06,VALID,917.058,VALID,0.0,VALID,98.84,VALID,0.033,VALID,18.635,VALID,45.0,VALID,0.193,
2018-06-30, 00:32:06,VALID,917.046,VALID,0.0,VALID,98.838,VALID,0.019,VALID,18.675,INVALID,360.0,VALID,0.066,
2018-06-30, 00:33:06,VALID,917.051,VALID,0.0,VALID,98.828,VALID,0.028,VALID,18.693,INVALID,360.0,VALID,0.002,
2018-06-30, 00:34:06,VALID,917.051,VALID,0.0,VALID,98.827,VALID,0.021,VALID,18.722,INVALID,360.0,VALID,0.0,
2018-06-30, 00:35:06,VALID,917.042,VALID,0.0,VALID,98.791,VALID,-0.004,VALID,18.703,INVALID,360.0,VALID,0.0,
2018-06-30, 00:36:06,VALID,917.054,VALID,0.0,VALID,98.729,VALID,-0.006,VALID,18.676,INVALID,360.0,VALID,0.151,
2018-06-30, 00:37:06,VALID,917.053,VALID,0.0,VALID,98.715,VALID,-0.003,VALID,18.682,VALID,42.0,VALID,0.089,
2018-06-30, 00:38:06,VALID,917.056,VALID,0.0,VALID,98.696,VALID,-0.025,VALID,18.675,INVALID,360.0,VALID,0.044,
2018-06-30, 00:39:06,VALID,917.056,VALID,0.0,VALID,98.71,VALID,-0.026,VALID,18.69,INVALID,360.0,VALID,0.0,
2018-06-30, 00:40:06,VALID,917.053,VALID,0.0,VALID,98.72,VALID,-0.005,VALID,18.706,VALID,44.0,VALID,0.009,
2018-06-30, 00:41:06,VALID,917.06,VALID,0.0,VALID,98.686,VALID,-0.012,VALID,18.698,VALID,45.0,VALID,0.043,
2018-06-30, 00:42:06,VALID,917.058,VALID,0.0,VALID,98.694,VALID,-0.012,VALID,18.684,VALID,46.0,VALID,0.234,
2018-06-30, 00:43:06,VALID,917.048,VALID,0.0,VALID,98.667,VALID,0.003,VALID,18.653,VALID,45.0,VALID,0.191,
2018-06-30, 00:44:06,VALID,917.042,VALID,0.0,VALID,98.666,VALID,-0.0,VALID,18.645,VALID,45.0,VALID,0.145,
2018-06-30, 00:45:06,VALID,917.027,VALID,0.0,VALID,98.655,VALID,0.011,VALID,18.636,VALID,45.0,VALID,0.363,
2018-06-30, 00:46:06,VALID,916.993,VALID,0.0,VALID,98.613,VALID,-0.009,VALID,18.587,VALID,45.0,VALID,0.381,
2018-06-30, 00:47:06,VALID,916.986,VALID,0.0,VALID,98.58,VALID,0.002,VALID,18.542,VALID,45.0,VALID,0.36,
2018-06-30, 00:48:06,VALID,916.978,VALID,0.0,VALID,98.6,VALID,-0.002,VALID,18.525,VALID,44.0,VALID,0.254,
2018-06-30, 00:49:06,VALID,916.981,VALID,0.0,VALID,98.66,VALID,-0.003,VALID,18.547,VALID,44.0,VALID,0.338,
2018-06-30, 00:50:06,VALID,916.978,VALID,0.0,VALID,98.617,VALID,-0.007,VALID,18.517,VALID,43.0,VALID,0.48,
2018-06-30, 00:51:06,VALID,916.968,VALID,0.0,VALID,98.615,VALID,-0.014,VALID,18.495,VALID,42.0,VALID,0.417,
2018-06-30, 00:52:06,VALID,916.962,VALID,0.0,VALID,98.641,VALID,0.007,VALID,18.488,VALID,42.0,VALID,0.155,
2018-06-30, 00:53:06,VALID,916.952,VALID,0.0,VALID,98.649,VALID,-0.012,VALID,18.49,VALID,44.0,VALID,0.279,
2018-06-30, 00:54:06,VALID,916.926,VALID,0.0,VALID,98.632,VALID,-0.012,VALID,18.467,VALID,46.0,VALID,0.536,
2018-06-30, 00:55:06,VALID,916.912,VALID,0.0,VALID,98.626,VALID,-0.009,VALID,18.449,VALID,44.0,VALID,0.486,
2018-06-30, 00:56:06,VALID,916.917,VALID,0.0,VALID,98.656,VALID,-0.006,VALID,18.444,VALID,44.0,VALID,0.612,
2018-06-30, 00:57:06,VALID,916.906,VALID,0.0,VALID,98.662,VALID,0.001,VALID,18.423,VALID,42.0,VALID,0.819,
2018-06-30, 00:58:06,VALID,916.902,VALID,0.0,VALID,98.679,VALID,0.0,VALID,18.414,VALID,42.0,VALID,0.736,
2018-06-30, 00:59:06,VALID,916.885,VALID,0.0,VALID,98.7,VALID,-0.0,VALID,18.411,VALID,43.0,VALID,0.957,
2018-06-30, 01:00:06,VALID,916.871,VALID,0.0,VALID,98.72,VALID,0.006,VALID,18.389,VALID,43.0,VALID,0.854,
2018-06-30, 01:01:06,VALID,916.865,VALID,0.0,VALID,98.75,VALID,-0.011,VALID,18.385,VALID,43.0,VALID,0.748,
2018-06-30, 01:02:06,VALID,916.853,VALID,0.0,VALID,98.777,VALID,-0.005,VALID,18.374,VALID,43.0,VALID,0.771,
2018-06-30, 01:03:06,VALID,916.816,VALID,0.0,VALID,98.804,VALID,-0.007,VALID,18.371,VALID,42.0,VALID,0.693,
2018-06-30, 01:04:06,VALID,916.799,VALID,0.0,VALID,98.822,VALID,-0.015,VALID,18.37,VALID,42.0,VALID,0.787,
2018-06-30, 01:05:06,VALID,916.783,VALID,0.0,VALID,98.871,VALID,-0.004,VALID,18.379,VALID,40.0,VALID,0.409,
2018-06-30, 01:06:06,VALID,916.752,VALID,0.0,VALID,98.893,VALID,-0.003,VALID,18.389,VALID,39.0,VALID,0.571,
2018-06-30, 01:07:06,VALID,916.75,VALID,0.0,VALID,98.911,VALID,-0.012,VALID,18.377,VALID,41.0,VALID,0.724,
2018-06-30, 01:08:06,VALID,916.746,VALID,0.0,VALID,98.849,VALID,-0.013,VALID,18.317,VALID,38.0,VALID,0.912,
2018-06-30, 01:09:06,VALID,916.736,VALID,0.0,VALID,98.857,VALID,-0.016,VALID,18.281,VALID,37.0,VALID,0.568,
2018-06-30, 01:10:06,VALID,916.738,VALID,0.0,VALID,98.885,VALID,-0.019,VALID,18.264,VALID,38.0,VALID,0.495,
2018-06-30, 01:11:06,VALID,916.742,VALID,0.0,VALID,98.938,VALID,-0.011,VALID,18.286,VALID,35.0,VALID,0.708,
2018-06-30, 01:12:06,VALID,916.741,VALID,0.0,VALID,98.909,VALID,-0.022,VALID,18.262,VALID,32.0,VALID,0.575,
2018-06-30, 01:13:06,VALID,916.738,VALID,0.0,VALID,98.94,VALID,-0.012,VALID,18.276,VALID,32.0,VALID,0.301,
2018-06-30, 01:14:06,VALID,916.734,VALID,0.0,VALID,98.954,VALID,-0.013,VALID,18.275,INVALID,360.0,VALID,0.068,
2018-06-30, 01:15:06,VALID,916.718,VALID,0.0,VALID,98.963,VALID,-0.002,VALID,18.271,VALID,40.0,VALID,0.294,
2018-06-30, 01:16:06,VALID,916.712,VALID,0.0,VALID,98.964,VALID,-0.015,VALID,18.256,VALID,41.0,VALID,0.157,
2018-06-30, 01:17:06,VALID,916.713,VALID,0.0,VALID,98.954,VALID,-0.016,VALID,18.234,VALID,41.0,VALID,0.152,
2018-06-30, 01:18:06,VALID,916.715,VALID,0.0,VALID,98.954,VALID,-0.028,VALID,18.21,VALID,37.0,VALID,0.159,
2018-06-30, 01:19:06,VALID,916.705,VALID,0.0,VALID,98.977,VALID,-0.018,VALID,18.226,INVALID,360.0,VALID,0.0,
2018-06-30, 01:20:06,VALID,916.706,VALID,0.0,VALID,99.012,VALID,0.034,VALID,18.232,INVALID,360.0,VALID,0.0,
2018-06-30, 01:21:06,VALID,916.699,VALID,0.0,VALID,99.005,VALID,0.037,VALID,18.231,INVALID,360.0,VALID,0.0,
2018-06-30, 01:22:06,VALID,916.696,VALID,0.0,VALID,98.968,VALID,0.025,VALID,18.208,INVALID,360.0,VALID,0.0,
2018-06-30, 01:23:06,VALID,916.697,VALID,0.0,VALID,98.988,VALID,0.033,VALID,18.172,INVALID,360.0,VALID,0.0,
2018-06-30, 01:24:06,VALID,916.723,VALID,0.0,VALID,98.974,VALID,0.041,VALID,18.135,INVALID,360.0,VALID,0.024,
2018-06-30, 01:25:06,VALID,916.724,VALID,0.0,VALID,99.054,VALID,0.036,VALID,18.201,VALID,36.0,VALID,0.232,
2018-06-30, 01:26:06,VALID,916.723,VALID,0.0,VALID,99.038,VALID,0.036,VALID,18.21,VALID,34.0,VALID,0.263,
2018-06-30, 01:27:06,VALID,916.733,VALID,0.0,VALID,99.016,VALID,0.032,VALID,18.192,INVALID,360.0,VALID,0.062,
2018-06-30, 01:28:06,VALID,916.754,VALID,0.0,VALID,99.005,VALID,0.041,VALID,18.169,INVALID,360.0,VALID,0.108,
2018-06-30, 01:29:06,VALID,916.761,VALID,0.0,VALID,99.016,VALID,0.054,VALID,18.145,VALID,323.0,VALID,0.209,
2018-06-30, 01:30:06,VALID,916.765,VALID,0.0,VALID,98.988,VALID,0.021,VALID,18.132,VALID,323.0,VALID,0.083,
2018-06-30, 01:31:06,VALID,916.786,VALID,0.0,VALID,99.001,VALID,0.043,VALID,18.131,VALID,325.0,VALID,0.27,
2018-06-30, 01:32:06,VALID,916.801,VALID,0.0,VALID,98.991,VALID,0.036,VALID,18.119,VALID,324.0,VALID,0.239,
2018-06-30, 01:33:06,VALID,916.819,VALID,0.0,VALID,99.009,VALID,0.054,VALID,18.118,VALID,323.0,VALID,0.0,
2018-06-30, 01:34:06,VALID,916.82,VALID,0.0,VALID,99.012,VALID,0.041,VALID,18.132,VALID,323.0,VALID,0.0,
2018-06-30, 01:35:06,VALID,916.833,VALID,0.0,VALID,99.002,VALID,-0.012,VALID,18.132,VALID,323.0,VALID,0.0,
2018-06-30, 01:36:06,VALID,916.85,VALID,0.0,VALID,99.002,VALID,-0.001,VALID,18.112,VALID,331.0,VALID,0.007,
2018-06-30, 01:37:06,VALID,916.851,VALID,0.0,VALID,98.99,VALID,0.003,VALID,18.099,VALID,21.0,VALID,0.065,
2018-06-30, 01:38:06,VALID,916.846,VALID,0.0,VALID,98.998,VALID,0.019,VALID,18.101,VALID,22.0,VALID,0.0,
2018-06-30, 01:39:06,VALID,916.853,VALID,0.0,VALID,99.02,VALID,0.02,VALID,18.093,VALID,26.0,VALID,0.0,
2018-06-30, 01:40:06,VALID,916.843,VALID,0.0,VALID,98.955,VALID,0.006,VALID,18.056,VALID,44.0,VALID,0.0,
2018-06-30, 01:41:06,VALID,916.846,VALID,0.0,VALID,99.004,VALID,0.012,VALID,18.07,VALID,45.0,VALID,0.0,
2018-06-30, 01:42:06,VALID,916.84,VALID,0.0,VALID,99.013,VALID,0.001,VALID,18.1,VALID,320.0,VALID,0.189,
2018-06-30, 01:43:06,VALID,916.829,VALID,0.0,VALID,99.009,VALID,0.004,VALID,18.102,VALID,275.0,VALID,0.157,
2018-06-30, 01:44:06,VALID,916.826,VALID,0.0,VALID,99.033,VALID,0.004,VALID,18.148,VALID,274.0,VALID,0.0,
2018-06-30, 01:45:06,VALID,916.795,VALID,0.0,VALID,99.026,VALID,0.017,VALID,18.158,VALID,273.0,VALID,0.262,
2018-06-30, 01:46:06,VALID,916.771,VALID,0.0,VALID,99.055,VALID,0.002,VALID,18.221,VALID,273.0,VALID,0.013,
2018-06-30, 01:47:06,VALID,916.76,VALID,0.0,VALID,99.068,VALID,-0.006,VALID,18.269,VALID,273.0,VALID,0.055,
2018-06-30, 01:48:06,VALID,916.75,VALID,0.0,VALID,99.062,VALID,-0.008,VALID,18.265,VALID,259.0,VALID,0.227,
2018-06-30, 01:49:06,VALID,916.748,VALID,0.0,VALID,99.023,VALID,0.008,VALID,18.225,VALID,238.0,VALID,0.457,
2018-06-30, 01:50:06,VALID,916.742,VALID,0.0,VALID,99.05,VALID,-0.032,VALID,18.243,VALID,229.0,VALID,0.161,
2018-06-30, 01:51:06,VALID,916.736,VALID,0.0,VALID,99.053,VALID,-0.038,VALID,18.27,INVALID,360.0,VALID,0.0,
2018-06-30, 01:52:06,VALID,916.743,VALID,0.0,VALID,99.056,VALID,-0.041,VALID,18.298,INVALID,360.0,VALID,0.0,
2018-06-30, 01:53:06,VALID,916.761,VALID,0.0,VALID,99.104,VALID,-0.053,VALID,18.339,INVALID,360.0,VALID,0.002,
2018-06-30, 01:54:06,VALID,916.765,VALID,0.0,VALID,99.049,VALID,-0.04,VALID,18.313,VALID,298.0,VALID,0.154,
2018-06-30, 01:55:06,VALID,916.773,VALID,0.0,VALID,98.981,VALID,-0.046,VALID,18.239,VALID,352.0,VALID,0.073,
2018-06-30, 01:56:06,VALID,916.779,VALID,0.0,VALID,99.007,VALID,-0.051,VALID,18.226,VALID,354.0,VALID,0.0,
2018-06-30, 01:57:06,VALID,916.773,VALID,0.0,VALID,99.013,VALID,-0.057,VALID,18.219,VALID,354.0,VALID,0.001,
2018-06-30, 01:58:06,VALID,916.768,VALID,0.0,VALID,99.037,VALID,-0.046,VALID,18.215,VALID,354.0,VALID,0.0,
2018-06-30, 01:59:06,VALID,916.765,VALID,0.0,VALID,99.038,VALID,-0.04,VALID,18.213,VALID,354.0,VALID,0.0,
2018-06-30, 02:00:06,VALID,916.747,VALID,0.0,VALID,99.028,VALID,-0.058,VALID,18.202,VALID,354.0,VALID,0.0,
2018-06-30, 02:01:06,VALID,916.738,VALID,0.0,VALID,99.021,VALID,-0.054,VALID,18.187,VALID,354.0,VALID,0.0,
2018-06-30, 02:02:06,VALID,916.729,VALID,0.0,VALID,99.048,VALID,-0.065,VALID,18.197,VALID,354.0,VALID,0.0,
2018-06-30, 02:03:06,VALID,916.723,VALID,0.0,VALID,99.053,VALID,-0.048,VALID,18.202,VALID,354.0,VALID,0.0,
2018-06-30, 02:04:06,VALID,916.72,VALID,0.0,VALID,99.057,VALID,-0.046,VALID,18.214,VALID,354.0,VALID,0.0,
2018-06-30, 02:05:06,VALID,916.721,VALID,0.0,VALID,99.061,VALID,0.005,VALID,18.234,VALID,315.0,VALID,0.019,
2018-06-30, 02:06:06,VALID,916.726,VALID,0.0,VALID,99.062,VALID,-0.004,VALID,18.213,INVALID,360.0,VALID,0.013,
2018-06-30, 02:07:06,VALID,916.717,VALID,0.0,VALID,99.062,VALID,-0.002,VALID,18.191,INVALID,360.0,VALID,0.0,
2018-06-30, 02:08:06,VALID,916.71,VALID,0.0,VALID,98.999,VALID,0.003,VALID,18.127,INVALID,360.0,VALID,0.0,
2018-06-30, 02:09:06,VALID,916.696,VALID,0.0,VALID,99.044,VALID,-0.015,VALID,18.145,INVALID,360.0,VALID,0.0,
2018-06-30, 02:10:06,VALID,916.679,VALID,0.0,VALID,99.016,VALID,-0.004,VALID,18.137,INVALID,360.0,VALID,0.0,
2018-06-30, 02:11:06,VALID,916.672,VALID,0.0,VALID,99.004,VALID,-0.005,VALID,18.105,INVALID,360.0,VALID,0.037,
2018-06-30, 02:12:06,VALID,916.663,VALID,0.0,VALID,99.026,VALID,0.006,VALID,18.125,VALID,253.0,VALID,0.011,
2018-06-30, 02:13:06,VALID,916.649,VALID,0.0,VALID,99.02,VALID,0.007,VALID,18.103,VALID,253.0,VALID,0.0,
2018-06-30, 02:14:06,VALID,916.619,VALID,0.0,VALID,99.045,VALID,-0.009,VALID,18.131,VALID,253.0,VALID,0.0,
2018-06-30, 02:15:06,VALID,916.61,VALID,0.0,VALID,99.078,VALID,-0.011,VALID,18.15,VALID,253.0,VALID,0.006,
2018-06-30, 02:16:06,VALID,916.582,VALID,0.0,VALID,99.02,VALID,0.006,VALID,18.128,VALID,253.0,VALID,0.0,
2018-06-30, 02:17:06,VALID,916.57,VALID,0.0,VALID,99.058,VALID,0.005,VALID,18.166,VALID,253.0,VALID,0.0,
2018-06-30, 02:18:06,VALID,916.545,VALID,0.0,VALID,99.024,VALID,0.009,VALID,18.136,VALID,259.0,VALID,0.051,
2018-06-30, 02:19:06,VALID,916.539,VALID,0.0,VALID,98.961,VALID,0.004,VALID,18.078,VALID,279.0,VALID,0.072,
2018-06-30, 02:20:06,VALID,916.548,VALID,0.0,VALID,98.913,VALID,-0.01,VALID,17.994,VALID,281.0,VALID,0.0,
2018-06-30, 02:21:06,VALID,916.561,VALID,0.0,VALID,98.886,VALID,-0.026,VALID,17.943,VALID,281.0,VALID,0.0,
2018-06-30, 02:22:06,VALID,916.565,VALID,0.0,VALID,98.875,VALID,-0.012,VALID,17.898,VALID,281.0,VALID,0.0,
2018-06-30, 02:23:06,VALID,916.561,VALID,0.0,VALID,98.866,VALID,-0.005,VALID,17.928,VALID,274.0,VALID,0.0,
2018-06-30, 02:24:06,VALID,916.545,VALID,0.0,VALID,98.885,VALID,-0.015,VALID,17.938,VALID,275.0,VALID,0.057,
2018-06-30, 02:25:06,VALID,916.536,VALID,0.0,VALID,98.84,VALID,-0.022,VALID,17.936,VALID,289.0,VALID,0.045,
2018-06-30, 02:26:06,VALID,916.509,VALID,0.0,VALID,98.749,VALID,-0.02,VALID,17.91,VALID,289.0,VALID,0.0,
2018-06-30, 02:27:06,VALID,916.508,VALID,0.0,VALID,98.782,VALID,-0.022,VALID,17.932,VALID,289.0,VALID,0.0,
2018-06-30, 02:28:06,VALID,916.488,VALID,0.0,VALID,98.814,VALID,-0.014,VALID,17.996,VALID,289.0,VALID,0.01,
2018-06-30, 02:29:06,VALID,916.474,VALID,0.0,VALID,98.769,VALID,-0.014,VALID,17.996,VALID,289.0,VALID,0.0,
2018-06-30, 02:30:06,VALID,916.453,VALID,0.0,VALID,98.776,VALID,-0.01,VALID,18.007,VALID,289.0,VALID,0.0,
2018-06-30, 02:31:06,VALID,916.44,VALID,0.0,VALID,98.757,VALID,-0.021,VALID,17.999,VALID,289.0,VALID,0.0,
2018-06-30, 02:32:06,VALID,916.425,VALID,0.0,VALID,98.749,VALID,-0.028,VALID,18.02,VALID,278.0,VALID,0.043,
2018-06-30, 02:33:06,VALID,916.425,VALID,0.0,VALID,98.778,VALID,-0.008,VALID,18.015,VALID,266.0,VALID,0.015,
2018-06-30, 02:34:06,VALID,916.416,VALID,0.0,VALID,98.735,VALID,-0.002,VALID,17.968,VALID,266.0,VALID,0.0,
2018-06-30, 02:35:06,VALID,916.407,VALID,0.0,VALID,98.762,VALID,-0.006,VALID,18.014,VALID,261.0,VALID,0.015,
2018-06-30, 02:36:06,VALID,916.408,VALID,0.0,VALID,98.794,VALID,-0.009,VALID,18.04,VALID,237.0,VALID,0.246,
2018-06-30, 02:37:06,VALID,916.385,VALID,0.0,VALID,98.796,VALID,0.001,VALID,18.047,VALID,232.0,VALID,0.274,
2018-06-30, 02:38:06,VALID,916.363,VALID,0.0,VALID,98.802,VALID,-0.008,VALID,18.056,INVALID,360.0,VALID,0.0,
2018-06-30, 02:39:06,VALID,916.346,VALID,0.0,VALID,98.858,VALID,0.002,VALID,18.093,INVALID,360.0,VALID,0.0,
2018-06-30, 02:40:06,VALID,916.322,VALID,0.0,VALID,98.858,VALID,-0.005,VALID,18.083,INVALID,360.0,VALID,0.0,
2018-06-30, 02:41:06,VALID,916.302,VALID,0.0,VALID,98.844,VALID,-0.01,VALID,18.085,INVALID,360.0,VALID,0.079,
2018-06-30, 02:42:06,VALID,916.287,VALID,0.0,VALID,98.744,VALID,-0.024,VALID,18.002,VALID,9.0,VALID,0.038,
2018-06-30, 02:43:06,VALID,916.275,VALID,0.0,VALID,98.82,VALID,-0.018,VALID,18.006,VALID,9.0,VALID,0.004,
2018-06-30, 02:44:06,VALID,916.256,VALID,0.0,VALID,98.784,VALID,-0.014,VALID,17.987,VALID,9.0,VALID,0.009,
2018-06-30, 02:45:06,VALID,916.224,VALID,0.0,VALID,98.772,VALID,-0.025,VALID,17.949,VALID,9.0,VALID,0.0,
2018-06-30, 02:46:06,VALID,916.197,VALID,0.0,VALID,98.824,VALID,-0.008,VALID,17.965,VALID,9.0,VALID,0.0,
2018-06-30, 02:47:06,VALID,916.165,VALID,0.0,VALID,98.808,VALID,0.004,VALID,17.967,VALID,7.0,VALID,0.0,
2018-06-30, 02:48:06,VALID,916.148,VALID,0.0,VALID,98.804,VALID,-0.011,VALID,17.951,VALID,360.0,VALID,0.0,
2018-06-30, 02:49:06,VALID,916.128,VALID,0.0,VALID,98.79,VALID,0.005,VALID,17.963,VALID,358.0,VALID,0.0,
2018-06-30, 02:50:06,VALID,916.111,VALID,0.0,VALID,98.769,VALID,0.011,VALID,17.975,VALID,352.0,VALID,0.0,
2018-06-30, 02:51:06,VALID,916.1,VALID,0.0,VALID,98.73,VALID,-0.003,VALID,17.942,VALID,282.0,VALID,0.0,
2018-06-30, 02:52:06,VALID,916.077,VALID,0.0,VALID,98.697,VALID,0.015,VALID,17.936,VALID,273.0,VALID,0.0,
2018-06-30, 02:53:06,VALID,916.067,VALID,0.0,VALID,98.718,VALID,0.008,VALID,17.947,VALID,272.0,VALID,0.0,
2018-06-30, 02:54:06,VALID,916.066,VALID,0.0,VALID,98.703,VALID,0.014,VALID,17.969,VALID,275.0,VALID,0.0,
2018-06-30, 02:55:06,VALID,916.065,VALID,0.0,VALID,98.726,VALID,0.002,VALID,17.986,VALID,289.0,VALID,0.008,
2018-06-30, 02:56:06,VALID,916.07,VALID,0.0,VALID,98.711,VALID,0.017,VALID,17.972,VALID,289.0,VALID,0.0,
2018-06-30, 02:57:06,VALID,916.063,VALID,0.0,VALID,98.647,VALID,0.008,VALID,17.936,VALID,289.0,VALID,0.0,
2018-06-30, 02:58:06,VALID,916.056,VALID,0.0,VALID,98.628,VALID,0.01,VALID,17.906,VALID,289.0,VALID,0.0,
2018-06-30, 02:59:06,VALID,916.033,VALID,0.0,VALID,98.655,VALID,-0.003,VALID,17.915,INVALID,360.0,VALID,0.0,
2018-06-30, 03:00:06,VALID,916.024,VALID,0.0,VALID,98.66,VALID,0.015,VALID,17.936,INVALID,360.0,VALID,0.0,
2018-06-30, 03:01:06,VALID,916.017,VALID,0.0,VALID,98.634,VALID,0.01,VALID,17.921,INVALID,360.0,VALID,0.083,
2018-06-30, 03:02:06,VALID,916.018,VALID,0.0,VALID,98.629,VALID,0.024,VALID,17.931,INVALID,360.0,VALID,0.009,
2018-06-30, 03:03:06,VALID,916.02,VALID,0.0,VALID,98.612,VALID,0.015,VALID,17.92,INVALID,360.0,VALID,0.0,
2018-06-30, 03:04:06,VALID,916.026,VALID,0.0,VALID,98.68,VALID,0.012,VALID,17.949,INVALID,360.0,VALID,0.0,
2018-06-30, 03:05:06,VALID,916.029,VALID,0.0,VALID,98.644,VALID,-0.031,VALID,17.946,INVALID,360.0,VALID,0.0,
2018-06-30, 03:06:06,VALID,916.019,VALID,0.0,VALID,98.618,VALID,-0.026,VALID,17.925,INVALID,360.0,VALID,0.0,
2018-06-30, 03:07:06,VALID,916.019,VALID,0.0,VALID,98.585,VALID,-0.029,VALID,17.904,INVALID,360.0,VALID,0.0,
2018-06-30, 03:08:06,VALID,916.006,VALID,0.0,VALID,98.541,VALID,-0.038,VALID,17.88,INVALID,360.0,VALID,0.0,
2018-06-30, 03:09:06,VALID,916.0,VALID,0.0,VALID,98.488,VALID,-0.048,VALID,17.858,VALID,52.0,VALID,0.0,
2018-06-30, 03:10:06,VALID,915.997,VALID,0.0,VALID,98.487,VALID,-0.029,VALID,17.857,VALID,48.0,VALID,0.0,
2018-06-30, 03:11:06,VALID,916.0,VALID,0.0,VALID,98.513,VALID,-0.024,VALID,17.879,VALID,48.0,VALID,0.0,
2018-06-30, 03:12:06,VALID,915.977,VALID,0.0,VALID,98.493,VALID,-0.029,VALID,17.869,VALID,48.0,VALID,0.0,
2018-06-30, 03:13:06,VALID,915.969,VALID,0.0,VALID,98.439,VALID,-0.038,VALID,17.842,VALID,48.0,VALID,0.0,
2018-06-30, 03:14:06,VALID,915.967,VALID,0.0,VALID,98.357,VALID,-0.023,VALID,17.818,VALID,36.0,VALID,0.0,
2018-06-30, 03:15:06,VALID,915.977,VALID,0.0,VALID,98.015,VALID,-0.021,VALID,17.703,VALID,243.0,VALID,0.326,
2018-06-30, 03:16:06,VALID,915.98,VALID,0.0,VALID,97.714,VALID,-0.044,VALID,17.727,VALID,248.0,VALID,0.189,
2018-06-30, 03:17:06,VALID,915.983,VALID,0.0,VALID,97.773,VALID,-0.03,VALID,17.856,VALID,234.0,VALID,0.168,
2018-06-30, 03:18:06,VALID,916.001,VALID,0.0,VALID,97.963,VALID,-0.028,VALID,17.92,INVALID,360.0,VALID,0.001,
2018-06-30, 03:19:06,VALID,916.016,VALID,0.0,VALID,98.068,VALID,-0.011,VALID,17.939,INVALID,360.0,VALID,0.005,
2018-06-30, 03:20:06,VALID,916.016,VALID,0.0,VALID,98.107,VALID,-0.006,VALID,17.946,INVALID,360.0,VALID,0.052,
2018-06-30, 03:21:06,VALID,916.027,VALID,0.0,VALID,98.163,VALID,-0.019,VALID,17.957,INVALID,360.0,VALID,0.002,
2018-06-30, 03:22:06,VALID,916.029,VALID,0.0,VALID,98.277,VALID,-0.018,VALID,17.993,INVALID,360.0,VALID,0.0,
2018-06-30, 03:23:06,VALID,916.027,VALID,0.0,VALID,98.367,VALID,-0.004,VALID,18.017,INVALID,360.0,VALID,0.0,
2018-06-30, 03:24:06,VALID,916.046,VALID,0.0,VALID,98.454,VALID,-0.009,VALID,18.033,INVALID,360.0,VALID,0.0,
2018-06-30, 03:25:06,VALID,916.058,VALID,0.0,VALID,98.344,VALID,-0.001,VALID,17.982,INVALID,360.0,VALID,0.0,
2018-06-30, 03:26:06,VALID,916.058,VALID,0.0,VALID,98.29,VALID,-0.018,VALID,17.912,INVALID,360.0,VALID,0.001,
2018-06-30, 03:27:06,VALID,916.054,VALID,0.0,VALID,98.314,VALID,-0.015,VALID,17.897,INVALID,360.0,VALID,0.0,
2018-06-30, 03:28:06,VALID,916.03,VALID,0.0,VALID,98.248,VALID,-0.0,VALID,17.845,INVALID,360.0,VALID,0.0,
2018-06-30, 03:29:06,VALID,916.014,VALID,0.0,VALID,98.296,VALID,-0.007,VALID,17.835,INVALID,360.0,VALID,0.0,
2018-06-30, 03:30:06,VALID,916.007,VALID,0.0,VALID,98.181,VALID,-0.019,VALID,17.769,INVALID,360.0,VALID,0.0,
2018-06-30, 03:31:06,VALID,915.988,VALID,0.0,VALID,98.058,VALID,-0.017,VALID,17.716,INVALID,360.0,VALID,0.0,
2018-06-30, 03:32:06,VALID,915.968,VALID,0.0,VALID,98.089,VALID,-0.006,VALID,17.731,INVALID,360.0,VALID,0.0,
2018-06-30, 03:33:06,VALID,915.953,VALID,0.0,VALID,98.113,VALID,-0.01,VALID,17.74,INVALID,360.0,VALID,0.0,
2018-06-30, 03:34:06,VALID,915.94,VALID,0.0,VALID,98.113,VALID,-0.018,VALID,17.74,INVALID,360.0,VALID,0.0,
2018-06-30, 03:35:06,VALID,915.914,VALID,0.0,VALID,98.112,VALID,0.027,VALID,17.744,INVALID,360.0,VALID,0.0,
2018-06-30, 03:36:06,VALID,915.881,VALID,0.0,VALID,98.11,VALID,0.035,VALID,17.744,INVALID,360.0,VALID,0.0,
2018-06-30, 03:37:06,VALID,915.868,VALID,0.0,VALID,97.998,VALID,0.046,VALID,17.71,INVALID,360.0,VALID,0.0,
2018-06-30, 03:38:06,VALID,915.854,VALID,0.0,VALID,97.972,VALID,0.023,VALID,17.691,INVALID,360.0,VALID,0.0,
2018-06-30, 03:39:06,VALID,915.83,VALID,0.0,VALID,98.012,VALID,0.039,VALID,17.688,INVALID,360.0,VALID,0.0,